Tracking 29892 objects as of 21-Nov-2024
HD Live streaming from Space Station
objects crossing your sky now

ONEWEB-0154

Track ONEWEB-0154 now!
10-day predictions
ONEWEB-0154 is classified as:


NORAD ID: 48045
Int'l Code: 2021-025D
Perigee: 1,215.8 km
Apogee: 1,218.1 km
Inclination: 87.9 °
Period: 109.6 minutes
Semi major axis: 7587 km
RCS: Unknown
Launch date: March 25, 2021
Source: United States (US)
Launch site: VOSTOCHNY COSMODROME (VOSTO)
Your satellite tracking list
Your tracking list is empty




NASA's NSSDC Master Catalog

Two Line Element Set (TLE):
1 48045U 21025D   24325.77394784 -.00000850  00000-0 -23619-2 0  9994
2 48045  87.8926  74.2835 0001537  99.8195 260.3108 13.13464158178236
Source of the keplerian elements: AFSPC